[[{"header":{"parameterUnit":"m.s-1","parameterCategory":1,"la1":30.2991,"la2":30.254,"lo1":-89.0895,"lo2":-89.0444,"dy":0.0017,"dx":0.0017,"nx":28,"ny":28,"refTime":"2024-10-18T21:00:00:Z","depth":0,"parameterNumber":2,"parameterNumberName":"U-component_of_WINDS"},"data":[0,0,0,0,0,0,0,0,0,0,0,0,0,0,0,0,0,0,0,0,0,0,0,0,0,0,0,0,0,0,0,0,0,0,0,0,0,0,0,0,0,0,0,0,0,0,0,0,0,0,0,0,0,0,0,0,0,0,-4.6676,-4.6677,0,-4.6695,-4.6695,-4.6695,-4.6489,-4.6484,-4.6478,-4.6473,-4.6495,-4.6501,-4.6507,0,0,0,0,0,0,0,0,0,0,0,0,0,-4.6465,-4.647,-4.6676,-4.6677,-4.6677,-4.6695,-4.6695,-4.6696,-4.649,-4.6483,-4.6476,-4.647,-4.6493,-4.65,-4.6508,0,0,0,0,0,0,0,0,0,0,0,0,0,-4.6528,-4.6472,-4.6676,-4.6576,-4.6568,-4.6695,-4.6695,-4.6696,-4.6492,-4.6483,-4.6475,-4.6467,-4.6491,-4.65,-4.6509,-4.6733,0,0,-4.6536,-4.6539,0,0,0,0,0,0,0,0,-4.6525,-4.6536,-4.6591,-4.6584,-4.6574,-4.6581,-4.6629,-4.6708,-4.6494,-4.6521,-4.6472,-4.6463,-4.6531,-4.6536,-4.6558,-4.6735,-4.6735,-4.6536,-4.6542,-4.6545,-4.6548,0,0,0,0,0,0,0,-4.652,-4.6534,-4.6684,-4.6592,-4.6582,-4.6531,-4.6531,-4.6643,-4.6574,-4.6518,-4.6503,-4.6508,-4.6525,-4.655,-4.6557,-4.6736,-4.6536,-4.6544,-4.6549,-4.6553,-4.7097,-4.7106,0,0,0,0,0,0,-4.6529,-4.6532,-4.6683,-4.6684,-4.6528,-4.6542,-4.6542,-4.6587,-4.6572,-4.6561,-4.6515,-4.6498,-4.6539,-4.6547,-4.6557,-4.682,-4.6545,-4.6554,-4.6559,-4.7088,-4.7099,-4.7109,0,0,0,0,0,0,-4.6525,-4.6545,-4.6682,-4.6604,-4.6617,-4.6555,-4.6608,-4.6592,-4.6617,-4.6569,-4.6556,-4.6554,-4.6533,-4.6545,-4.6691,-4.6818,-4.6558,-4.6566,-4.7077,-4.7092,-4.7104,-4.7347,0,0,0,0,0,0,-4.652,-4.6545,-4.6629,-4.6607,-4.6623,-4.6816,-4.6616,-4.6599,-4.6633,-4.6611,-4.6602,-4.6593,-4.6527,-4.6679,-4.67,-4.6825,-4.6573,-4.7066,-4.7084,-4.71,-4.7328,-4.7368,-4.7402,0,0,0,0,0,-4.6513,-4.6698,-4.6634,-4.6654,-4.6727,-4.6823,-4.6832,-4.6752,-4.6644,-4.6729,-4.6698,-4.6593,-4.68,-4.6696,-4.6717,-4.6848,-4.7057,-4.7079,-4.7099,-4.7311,-4.736,-4.7401,0,0,0,0,0,0,-4.6737,-4.6693,-4.6622,-4.6805,-4.6819,-4.6788,-4.6893,-4.6806,-4.6853,-4.683,-4.6729,-4.6729,-4.6892,-4.6884,-4.6768,-4.7064,-4.691,-4.6936,-4.7064,-4.711,-4.7146,-4.7146,-4.658,0,0,0,0,0,-4.6808,-4.6889,-4.6846,-4.7011,-4.7022,-4.6957,-4.6996,-4.6932,-4.6944,-4.695,-4.6929,-4.6945,-4.7013,-4.7061,-4.7121,-4.7325,-4.732,-4.7425,-4.7462,-4.7493,-4.7517,-4.7625,-4.7671,-4.7177,-4.7177,-4.7176,0,0,-4.6954,-4.694,-4.6998,-4.7056,-4.7059,-4.7147,-4.6963,-4.7064,-4.7128,-4.6965,-4.7101,-4.7087,-4.7098,-4.7275,-4.7351,-4.7273,-4.7652,-4.7519,-4.7544,-4.7551,-4.7651,-4.7697,-4.7739,-4.7191,-4.7188,-4.7186,0,0,-4.7266,-4.7263,-4.74,-4.7408,-4.7415,-4.737,-4.7404,-4.7386,-4.737,-4.7505,-4.7385,-4.746,-4.758,-4.7592,-4.7615,-4.7931,-4.7837,-4.7954,-4.8148,-4.8254,-4.8293,-4.8327,-4.8441,-4.8483,-4.7978,-4.7978,-4.7979,0,-4.7448,-4.7574,-4.7482,-4.7591,-4.762,-4.7475,-4.7614,-4.7625,-4.7654,-4.7678,-4.7589,-4.7736,-4.7733,-4.791,-4.7988,-4.801,-4.8046,-4.7955,-4.8295,-4.8328,-4.8358,-4.8466,-4.8509,-4.7992,-4.7991,-4.7989,-4.7988,0,-4.7797,-4.7887,-4.7997,-4.8026,-4.8067,-4.8191,-4.8119,-4.8172,-4.8105,-4.807,-4.8209,-4.8201,-4.8257,-4.8294,-4.823,-4.8463,-4.8414,-4.8312,-4.8155,-4.8421,-4.8521,-4.8561,-4.8013,-4.8008,-4.8003,-4.8,0,0,-4.8253,-4.8228,-4.8271,-4.8282,-4.8279,-4.8347,-4.8464,-4.8517,-4.8565,-4.8589,-4.8685,-4.879,-4.8695,-4.8721,-4.8656,-4.875,-4.9002,-4.8635,-4.8634,-4.8705,-4.9259,-4.9337,-4.9386,-4.8939,-4.8946,-4.8952,-4.9258,0,-4.8557,-4.8754,-4.8675,-4.8879,-4.8961,-4.8824,-4.8925,-4.8936,-4.8906,-4.8972,-4.8938,-4.9015,-4.8883,-4.8898,-4.8983,-4.8953,-4.9112,-4.893,-4.9029,-4.9033,-4.9032,-4.9437,-4.952,-4.981,-4.9296,-4.9303,-4.9307,0,-4.8939,-4.8977,-4.919,-4.9172,-4.9204,-4.9297,-4.9339,-4.9403,-4.9412,-4.9384,-4.9413,-4.9328,-4.9441,-4.9284,-4.944,-4.9318,-4.9354,-4.9345,-4.9354,-4.9362,-4.9188,-4.9457,-4.99,-4.9944,-4.9368,-4.9363,-4.9358,0,-4.9251,-4.9356,-4.9496,-4.951,-4.9493,-4.9562,-4.9558,-4.9558,-4.9595,-4.9633,-4.9656,-4.9707,-4.9736,-4.9778,-4.9709,-4.9601,-4.9876,-4.9712,-4.9857,-4.9859,-4.9922,-4.992,-5.0379,-4.9944,-4.9943,-4.9942,-4.9941,0,-4.96,-4.9736,-4.9636,-4.9723,-4.9871,-4.9778,-4.9928,-4.9909,-4.991,-4.9992,-4.9876,-4.9955,-4.9859,-4.993,-4.9877,-5.0015,-5.0028,-5.001,-4.9994,-5.0021,-5.0024,-5.0044,-5.0023,-4.9954,-4.9951,-4.9949,-4.9947,0,-4.9974,-4.9912,-5.0057,-5.0029,-5.0025,-5.0136,-5.0111,-5.0191,-5.0152,-5.0257,-5.0276,-5.0217,-5.0293,-5.0228,-5.0303,-5.0267,-5.0451,-5.0406,-5.0449,-5.0437,-5.0585,-5.0573,-5.1074,-5.1136,-5.0661,-5.0665,-5.0669,0,-5.0202,-5.0303,-5.0285,-5.033,-5.0334,-5.0409,-5.0446,-5.0359,-5.0402,-5.042,-5.0498,-5.0564,-5.0613,-5.0742,-5.0706,-5.0762,-5.0719,-5.0891,-5.0727,-5.075,-5.0723,-5.0718,-5.0728,-5.0925,-5.093,-5.0935,-5.0939,0,-5.0612,-5.0576,-5.0634,-5.0682,-5.0729,-5.0762,-5.0786,-5.0831,-5.0741,-5.0796,-5.0873,-5.091,-5.0986,-5.1054,-5.1098,-5.1095,-5.1004,-5.099,-5.1027,-5.1056,-5.1076,-5.1068,-5.0541,-5.0979,-5.0975,-5.0972,-5.097,-5.0969,-5.092,-5.1004,-5.1004,-5.1072,-5.1081,-5.1107,-5.118,-5.115,-5.1212,-5.1266,-5.121,-5.1304,-5.1309,-5.1359,-5.1367,-5.1439,-5.1368,-5.1421,-5.1434,-5.1449,-5.1471,-5.1064,-5.1447,-5.1446,-5.1444,-5.1443,-5.1443,0,-5.1326,-5.1319,-5.1382,-5.1419,-5.1473,-5.138,-5.1402,-5.1454,-5.1537,-5.1549,-5.1599,-5.1687,-5.1752,-5.1722,-5.1778,-5.1842,-5.1802,-5.186,-5.1855,-5.1856,-5.1531,-5.1494,-5.1892,-5.1892,-5.1892,-5.1892,-5.1892,-5.1892,-5.1543,-5.1679,-5.1644,-5.1784,-5.1776,-5.1866,-5.1886,-5.191,-5.1919,-5.2022,-5.2075,-5.2054,-5.205,-5.2105,-5.2161,-5.215,-5.2177,-5.2252,-5.2226,-5.1923,-5.1879,-5.1837,-5.1802,-5.2258,-5.2258,-5.2545,-5.2548,-5.255]},{"header":{"parameterUnit":"m.s-1","parameterCategory":1,"la1":30.2991,"la2":30.254,"lo1":-89.0895,"lo2":-89.0444,"dy":0.0017,"dx":0.0017,"nx":28,"ny":28,"refTime":"2024-10-18T21:00:00:Z","depth":0,"parameterNumber":3,"parameterNumberName":"V-component_of_WINDS"},"data":[0,0,0,0,0,0,0,0,0,0,0,0,0,0,0,0,0,0,0,0,0,0,0,0,0,0,0,0,0,0,0,0,0,0,0,0,0,0,0,0,0,0,0,0,0,0,0,0,0,0,0,0,0,0,0,0,0,0,-2.6298,-2.6298,0,-2.6349,-2.6349,-2.635,-2.6347,-2.6346,-2.6346,-2.6345,-2.6395,-2.6397,-2.6399,0,0,0,0,0,0,0,0,0,0,0,0,0,-2.6193,-2.6195,-2.6298,-2.6298,-2.6299,-2.6349,-2.6349,-2.635,-2.6347,-2.6346,-2.6345,-2.6345,-2.6394,-2.6397,-2.6399,0,0,0,0,0,0,0,0,0,0,0,0,0,-2.6241,-2.6196,-2.6298,-2.6304,-2.6305,-2.6349,-2.6349,-2.635,-2.6347,-2.6346,-2.6345,-2.6344,-2.6393,-2.6396,-2.6399,-2.644,0,0,-2.6409,-2.641,0,0,0,0,0,0,0,0,-2.6238,-2.6245,-2.6302,-2.6303,-2.6304,-2.6341,-2.6331,-2.638,-2.6348,-2.6331,-2.6345,-2.6344,-2.6378,-2.6382,-2.6394,-2.6442,-2.6445,-2.6409,-2.6411,-2.6412,-2.6413,0,0,0,0,0,0,0,-2.6235,-2.6243,-2.6318,-2.6303,-2.6304,-2.6302,-2.6308,-2.634,-2.636,-2.6332,-2.6332,-2.6339,-2.6378,-2.6391,-2.6395,-2.6445,-2.6409,-2.6411,-2.6413,-2.6414,-2.6527,-2.6528,0,0,0,0,0,0,-2.6231,-2.624,-2.6316,-2.6319,-2.6268,-2.6305,-2.6311,-2.633,-2.6359,-2.6363,-2.6339,-2.6338,-2.6386,-2.6391,-2.6397,-2.6444,-2.6412,-2.6415,-2.6417,-2.6526,-2.6527,-2.6528,0,0,0,0,0,0,-2.6229,-2.6238,-2.6314,-2.628,-2.6289,-2.6308,-2.6329,-2.6332,-2.6344,-2.6365,-2.6368,-2.6349,-2.6386,-2.6392,-2.6429,-2.6446,-2.6416,-2.6419,-2.6524,-2.6526,-2.6528,-2.6541,0,0,0,0,0,0,-2.6226,-2.6237,-2.6254,-2.628,-2.6291,-2.6347,-2.633,-2.6333,-2.635,-2.6349,-2.6375,-2.6378,-2.6385,-2.6424,-2.6432,-2.645,-2.6421,-2.6523,-2.6525,-2.6527,-2.6539,-2.6543,-2.6547,0,0,0,0,0,-2.6222,-2.6255,-2.6255,-2.6264,-2.6313,-2.6348,-2.6354,-2.6362,-2.6352,-2.6368,-2.638,-2.6377,-2.6443,-2.6428,-2.6436,-2.6456,-2.6522,-2.6524,-2.6527,-2.6538,-2.6542,-2.6546,0,0,0,0,0,0,-2.623,-2.6259,-2.6258,-2.6302,-2.6322,-2.6347,-2.6368,-2.6367,-2.6391,-2.6389,-2.6397,-2.6403,-2.6439,-2.6451,-2.6434,-2.6495,-2.6481,-2.6485,-2.6486,-2.6491,-2.6494,-2.649,-2.6424,0,0,0,0,0,-2.6237,-2.6265,-2.6288,-2.6324,-2.6334,-2.6349,-2.6365,-2.6369,-2.6391,-2.6399,-2.6415,-2.6435,-2.646,-2.6476,-2.65,-2.6541,-2.6545,-2.6558,-2.6562,-2.6565,-2.6568,-2.6588,-2.6593,-2.6537,-2.6537,-2.6537,0,0,-2.6252,-2.6271,-2.6288,-2.6326,-2.6342,-2.6369,-2.6357,-2.6386,-2.6405,-2.6403,-2.6439,-2.645,-2.6473,-2.6511,-2.6529,-2.6522,-2.6584,-2.6568,-2.657,-2.6572,-2.6591,-2.6597,-2.6601,-2.6539,-2.6539,-2.6538,0,0,-2.6292,-2.631,-2.6341,-2.6357,-2.6382,-2.6392,-2.6399,-2.6424,-2.6431,-2.6467,-2.6466,-2.6488,-2.6532,-2.6547,-2.6561,-2.6604,-2.6601,-2.6612,-2.663,-2.665,-2.6654,-2.6658,-2.6672,-2.6677,-2.6615,-2.6615,-2.6615,0,-2.6306,-2.6347,-2.6356,-2.6385,-2.6401,-2.6401,-2.6431,-2.6446,-2.6478,-2.6488,-2.648,-2.6533,-2.6549,-2.659,-2.66,-2.6612,-2.6619,-2.6608,-2.6653,-2.6657,-2.6661,-2.6674,-2.6679,-2.6616,-2.6616,-2.6616,-2.6616,0,-2.6363,-2.6391,-2.6413,-2.6443,-2.6462,-2.6491,-2.6503,-2.652,-2.6522,-2.6532,-2.6566,-2.6585,-2.6612,-2.6622,-2.6625,-2.6662,-2.6657,-2.6651,-2.6637,-2.6667,-2.6679,-2.6684,-2.6617,-2.6617,-2.6617,-2.6617,0,0,-2.641,-2.6444,-2.6452,-2.6464,-2.6491,-2.6512,-2.6541,-2.6567,-2.6581,-2.6602,-2.6625,-2.6661,-2.6655,-2.667,-2.6674,-2.6692,-2.6722,-2.6683,-2.6684,-2.6688,-2.6762,-2.6766,-2.6771,-2.6721,-2.6722,-2.6723,-2.676,0,-2.6452,-2.6503,-2.651,-2.6555,-2.658,-2.6579,-2.6603,-2.6621,-2.6631,-2.6652,-2.6662,-2.6687,-2.6678,-2.6687,-2.6704,-2.6715,-2.6737,-2.6712,-2.674,-2.6741,-2.6733,-2.6778,-2.6783,-2.6817,-2.6765,-2.6766,-2.6766,0,-2.6507,-2.6529,-2.6576,-2.6597,-2.6608,-2.663,-2.6654,-2.6675,-2.6694,-2.67,-2.6716,-2.6718,-2.6745,-2.673,-2.6767,-2.675,-2.6762,-2.6768,-2.677,-2.6772,-2.6755,-2.678,-2.6828,-2.6833,-2.6774,-2.6774,-2.6773,0,-2.6534,-2.6576,-2.6609,-2.662,-2.6646,-2.6661,-2.6673,-2.6691,-2.6706,-2.6727,-2.6736,-2.6759,-2.6772,-2.6789,-2.6796,-2.6785,-2.6832,-2.6818,-2.6835,-2.6835,-2.6845,-2.6844,-2.6894,-2.6854,-2.6854,-2.6854,-2.6854,0,-2.6579,-2.6607,-2.6621,-2.6642,-2.6672,-2.668,-2.671,-2.6721,-2.6737,-2.6758,-2.6759,-2.6778,-2.6787,-2.6807,-2.6813,-2.6841,-2.6847,-2.6851,-2.6852,-2.685,-2.6849,-2.6857,-2.6855,-2.6856,-2.6855,-2.6855,-2.6855,0,-2.6615,-2.6626,-2.6661,-2.6683,-2.6689,-2.671,-2.6728,-2.6746,-2.6755,-2.6781,-2.6788,-2.6801,-2.6825,-2.6834,-2.6863,-2.6866,-2.6898,-2.6898,-2.6892,-2.6892,-2.6908,-2.6906,-2.6964,-2.6971,-2.6928,-2.6929,-2.6929,0,-2.6642,-2.6664,-2.6687,-2.6701,-2.6713,-2.6736,-2.6751,-2.6759,-2.6774,-2.6797,-2.6812,-2.6836,-2.6855,-2.6892,-2.6904,-2.6925,-2.6924,-2.6943,-2.6928,-2.6925,-2.6923,-2.6921,-2.6922,-2.6946,-2.6946,-2.6947,-2.6947,0,-2.6689,-2.6692,-2.6714,-2.6737,-2.6755,-2.6773,-2.6791,-2.6803,-2.6813,-2.6829,-2.6854,-2.6869,-2.6898,-2.692,-2.6942,-2.6952,-2.6951,-2.6952,-2.6957,-2.6955,-2.695,-2.6951,-2.6898,-2.695,-2.695,-2.695,-2.695,-2.6949,-2.672,-2.6738,-2.6757,-2.678,-2.6794,-2.6811,-2.6828,-2.6839,-2.686,-2.6884,-2.6887,-2.6913,-2.6929,-2.6958,-2.6969,-2.6988,-2.6983,-2.6991,-2.6993,-2.6994,-2.6994,-2.6947,-2.6993,-2.6993,-2.6992,-2.6992,-2.6992,0,-2.6765,-2.6776,-2.6798,-2.6823,-2.6841,-2.6838,-2.6857,-2.6872,-2.6895,-2.6911,-2.6929,-2.6956,-2.6978,-2.699,-2.7011,-2.7024,-2.7024,-2.7029,-2.7028,-2.703,-2.6999,-2.6991,-2.7029,-2.7029,-2.7029,-2.7029,-2.7029,-2.7029,-2.679,-2.682,-2.6826,-2.6862,-2.6873,-2.6899,-2.6909,-2.6924,-2.6936,-2.6966,-2.6984,-2.6992,-2.7006,-2.7028,-2.7047,-2.705,-2.7057,-2.7063,-2.7065,-2.7036,-2.7032,-2.7028,-2.7022,-2.7065,-2.7065,-2.7095,-2.7095,-2.7095]}]]